Change the Weather History Date:

Sunday, February 3, 2013

  Actual Average (KOFK) Record (KOFK)
Temperature  
Mean Temperature 36 °F 24 °F  
Max Temperature 52 °F 34 °F 68 °F (1962)
Min Temperature 20 °F 13 °F -21 °F (1996)
Degree Days  
Heating Degree Days 29 41  
Month to date heating degree days 123  
Since 1 July heating degree days 4145  
Cooling Degree Days 0 0  
Month to date cooling degree days 0  
Year to date cooling degree days 0  
Moisture  
Dew Point 22 °F    
Average Humidity 62    
Maximum Humidity 85    
Minimum Humidity 34    
Precipitation  
Precipitation 0.00 in 0.02 in 0.60 in (1903)
Month to date precipitation 0.07  
Year to date precipitation 0.66  
Snow  
Snow 0.00 in 0.30 in - ()
Month to date snowfall 0.7  
Since 1 July snowfall 18.0  
Snow Depth -    
Sea Level Pressure  
Sea Level Pressure 29.98 in    
Wind  
Wind Speed 11 mph (WSW)    
Max Wind Speed 23 mph    
Max Gust Speed 28 mph    
Visibility 10 miles    
Events      
T = Trace of Precipitation, MM = Missing Value Source: NWS Daily Summary

Daily Weather History Graph

Daily Weather History Graph

Search for Another Location

Airport or City:

Trip Planner

Search our weather history database for the weather conditions in past years. The results will help you decide how hot, cold, wet, or windy it might be!

Date:

Astronomy

Feb. 03, 2013 Rise Set
Actual Time 7:38 AM CST 5:45 PM CST
Civil Twilight 7:09 AM CST 6:14 PM CST
Nautical Twilight 6:35 AM CST 6:48 PM CST
Astronomical Twilight 6:03 AM CST 7:21 PM CST
Moon 1:08 AM CST (2/3) 11:22 AM CST (2/3)
Length of Visible Light 11h 05m
Length of Day
10h 06m
Waning Gibbous, 48% of the Moon is Illuminated
Feb 3
Waning Gibbous
Feb 10
New
Feb 17
First Quarter
Feb 25
Full
Mar 4
Last Quarter

Hourly Weather History & Observations

Time (CST) Temp. Windchill Dew Point Humidity Pressure Visibility Wind Dir Wind Speed Gust Speed Precip Events Conditions
12:15 AM 29.7 °F 17.8 °F 23.0 °F 76% 30.14 in 10.0 mi NNW 17.3 mph 25.3 mph N/A   Scattered Clouds
12:35 AM 28.4 °F 18.5 °F 22.6 °F 79% 30.15 in 10.0 mi NNW 11.5 mph - N/A   Clear
12:55 AM 27.3 °F 16.1 °F 21.6 °F 79% 30.17 in 10.0 mi NNW 13.8 mph 20.7 mph N/A   Clear
1:15 AM 26.4 °F 16.0 °F 20.3 °F 78% 30.18 in 10.0 mi NW 11.5 mph - N/A   Clear
1:35 AM 25.7 °F 16.4 °F 20.3 °F 80% 30.17 in 10.0 mi NW 9.2 mph - N/A   Clear
1:55 AM 26.2 °F 13.0 °F 18.1 °F 71% 30.17 in 10.0 mi NW 18.4 mph 26.5 mph N/A   Clear
2:15 AM 24.8 °F 14.0 °F 16.7 °F 71% 30.18 in 10.0 mi NNW 11.5 mph - N/A   Clear
2:35 AM 23.9 °F 13.5 °F 17.1 °F 75% 30.19 in 10.0 mi NNW 10.4 mph - N/A   Clear
2:55 AM 23.5 °F 14.5 °F 17.6 °F 78% 30.19 in 10.0 mi NW 8.1 mph - N/A   Clear
3:15 AM 23.7 °F 14.0 °F 17.2 °F 76% 30.19 in 10.0 mi NW 9.2 mph - N/A   Clear
3:35 AM 23.0 °F 13.1 °F 16.2 °F 75% 30.18 in 10.0 mi NW 9.2 mph - N/A   Clear
3:55 AM 22.6 °F 14.3 °F 16.7 °F 78% 30.17 in 10.0 mi NW 6.9 mph - N/A   Clear
4:15 AM 22.8 °F 14.5 °F 16.0 °F 75% 30.18 in 10.0 mi NW 6.9 mph - N/A   Clear
4:35 AM 21.6 °F 16.8 °F 15.8 °F 78% 30.18 in 10.0 mi NNW 3.5 mph - N/A   Clear
4:55 AM 20.8 °F - 15.4 °F 80% 30.17 in 10.0 mi Calm Calm - N/A   Clear
5:15 AM 20.5 °F - 15.4 °F 81% 30.17 in 10.0 mi Calm Calm - N/A   Scattered Clouds
5:35 AM 20.7 °F - 15.1 °F 79% 30.17 in 10.0 mi Calm Calm - N/A   Mostly Cloudy
6:15 AM 21.9 °F - 16.3 °F 79% 30.17 in 10.0 mi Calm Calm - N/A   Overcast
6:35 AM 22.1 °F 17.4 °F 17.1 °F 81% 30.16 in 10.0 mi SW 3.5 mph - N/A   Overcast
6:55 AM 22.5 °F 16.3 °F 17.6 °F 82% 30.15 in 10.0 mi SW 4.6 mph - N/A   Overcast
7:15 AM 22.1 °F 17.4 °F 17.4 °F 82% 30.15 in 10.0 mi West 3.5 mph - N/A   Overcast
7:35 AM 20.7 °F 13.0 °F 16.5 °F 84% 30.15 in 10.0 mi SSW 5.8 mph - N/A   Overcast
7:55 AM 20.1 °F 13.6 °F 16.2 °F 85% 30.15 in 10.0 mi WSW 4.6 mph - N/A   Mostly Cloudy
8:15 AM 20.5 °F 12.8 °F 16.3 °F 84% 30.14 in 10.0 mi SW 5.8 mph - N/A   Scattered Clouds
8:35 AM 22.6 °F 16.5 °F 17.6 °F 81% 30.14 in 10.0 mi SW 4.6 mph - N/A   Scattered Clouds
8:55 AM 24.6 °F 18.8 °F 19.2 °F 80% 30.13 in 10.0 mi SW 4.6 mph - N/A   Clear
9:15 AM 26.8 °F 18.5 °F 21.4 °F 80% 30.12 in 10.0 mi SSW 8.1 mph - N/A   Clear
9:35 AM 29.3 °F 20.8 °F 22.8 °F 77% 30.10 in 10.0 mi SW 9.2 mph - N/A   Clear
9:55 AM 31.1 °F 23.1 °F 23.4 °F 73% 30.08 in 10.0 mi SSW 9.2 mph - N/A   Clear
10:15 AM 33.3 °F 23.7 °F 22.6 °F 65% 30.07 in 10.0 mi SW 13.8 mph - N/A   Clear
10:35 AM 34.9 °F 26.2 °F 18.9 °F 52% 30.06 in 10.0 mi SW 12.7 mph - N/A   Clear
10:55 AM 35.6 °F 26.6 °F 20.3 °F 54% 30.06 in 10.0 mi SW 13.8 mph - N/A   Clear
11:15 AM 38.5 °F 29.2 °F 21.7 °F 51% 30.04 in 10.0 mi SSW 17.3 mph - N/A   Clear
11:35 AM 40.1 °F 32.0 °F 21.2 °F 47% 30.03 in 10.0 mi SW 15.0 mph - N/A   Clear
11:55 AM 42.1 °F 34.9 °F 22.6 °F 46% 30.01 in 10.0 mi SW 13.8 mph - N/A   Clear
12:15 PM 43.7 °F 36.3 °F 24.3 °F 46% 29.99 in 10.0 mi SW 16.1 mph - N/A   Clear
12:35 PM 45.0 °F 37.4 °F 24.1 °F 44% 29.97 in 10.0 mi SSW 18.4 mph 21.9 mph N/A   Clear
12:55 PM 46.6 °F - 24.8 °F 43% 29.96 in 10.0 mi SW 17.3 mph - N/A   Clear
1:15 PM 48.2 °F - 25.5 °F 41% 29.95 in 10.0 mi SW 17.3 mph 25.3 mph N/A   Clear
1:35 PM 49.3 °F - 25.3 °F 39% 29.93 in 10.0 mi SW 16.1 mph - N/A   Clear
1:55 PM 50.4 °F - 25.5 °F 38% 29.91 in 10.0 mi SW 17.3 mph - N/A   Clear
2:15 PM 50.7 °F - 24.8 °F 36% 29.90 in 10.0 mi SW 20.7 mph - N/A   Clear
2:35 PM 51.4 °F - 25.2 °F 36% 29.87 in 10.0 mi SSW 17.3 mph 24.2 mph N/A   Clear
2:55 PM 52.2 °F - 24.6 °F 34% 29.85 in 10.0 mi SW 23.0 mph 27.6 mph N/A   Clear
3:15 PM 52.3 °F - 25.0 °F 35% 29.85 in 10.0 mi SW 20.7 mph 26.5 mph N/A   Clear
3:35 PM 52.2 °F - 24.3 °F 34% 29.84 in 10.0 mi SW 21.9 mph 26.5 mph N/A   Clear
3:55 PM 51.8 °F - 23.9 °F 34% 29.84 in 10.0 mi SW 13.8 mph - N/A   Clear
4:15 PM 51.6 °F - 23.7 °F 34% 29.82 in 10.0 mi SSW 13.8 mph - N/A   Clear
4:35 PM 50.5 °F - 25.0 °F 37% 29.81 in 10.0 mi SSW 15.0 mph - N/A   Clear
4:55 PM 48.4 °F - 25.7 °F 41% 29.80 in 10.0 mi SSW 13.8 mph - N/A   Clear
5:15 PM 45.5 °F 39.9 °F 26.6 °F 48% 29.80 in 10.0 mi South 11.5 mph - N/A   Clear
5:35 PM 43.5 °F 36.7 °F 27.0 °F 52% 29.79 in 10.0 mi South 13.8 mph - N/A   Clear
5:55 PM 42.3 °F 35.5 °F 27.0 °F 55% 29.79 in 10.0 mi SSW 12.7 mph - N/A   Clear
6:15 PM 42.8 °F 37.0 °F 27.1 °F 54% 29.79 in 10.0 mi SSW 10.4 mph - N/A   Clear
6:35 PM 41.2 °F 34.1 °F 27.1 °F 57% 29.79 in 10.0 mi SW 12.7 mph - N/A   Clear
6:55 PM 40.8 °F 33.3 °F 27.3 °F 59% 29.78 in 10.0 mi SW 13.8 mph - N/A   Clear
7:15 PM 40.5 °F 33.2 °F 27.3 °F 59% 29.78 in 10.0 mi SW 12.7 mph - N/A   Clear
7:55 PM 39.2 °F 31.6 °F 27.9 °F 64% 29.77 in 10.0 mi SW 12.7 mph - N/A   Clear
8:15 PM 39.4 °F 32.3 °F 27.9 °F 63% 29.77 in 10.0 mi SW 11.5 mph - N/A   Clear
8:35 PM 39.4 °F 32.3 °F 27.9 °F 63% 29.76 in 10.0 mi SW 11.5 mph - N/A   Clear
8:55 PM 39.4 °F 32.3 °F 27.9 °F 63% 29.76 in 10.0 mi SW 11.5 mph - N/A   Clear
9:15 PM 39.6 °F 32.5 °F 27.5 °F 62% 29.76 in 10.0 mi SW 11.5 mph - N/A   Clear
9:35 PM 40.1 °F 33.6 °F 27.3 °F 60% 29.76 in 10.0 mi WSW 10.4 mph - N/A   Clear
9:55 PM 40.6 °F 33.8 °F 27.1 °F 59% 29.75 in 10.0 mi WSW 11.5 mph - N/A   Clear
10:15 PM 40.5 °F 34.1 °F 27.1 °F 59% 29.74 in 10.0 mi WSW 10.4 mph - N/A   Clear
10:35 PM 39.7 °F 33.7 °F 27.1 °F 61% 29.74 in 10.0 mi WSW 9.2 mph - N/A   Clear
10:55 PM 39.2 °F 35.0 °F 27.1 °F 62% 29.74 in 10.0 mi WSW 5.8 mph - N/A   Clear
11:15 PM 39.2 °F 34.2 °F 27.1 °F 62% 29.74 in 10.0 mi WSW 6.9 mph - N/A   Clear
11:35 PM 39.6 °F 33.0 °F 27.0 °F 61% 29.74 in 10.0 mi WSW 10.4 mph - N/A   Clear
11:55 PM 38.5 °F 36.1 °F 26.8 °F 63% 29.74 in 10.0 mi West 3.5 mph - N/A   Clear